Tracking 19226 objects as of 23-Jul-2018
HD Live streaming from Space Station
objects crossing your sky now

FENGYUN 1C DEB

Track FENGYUN 1C DEB now!
10-day predictions


NORAD ID: 38147
Int'l Code: 1999-025EQU
Perigee: 800.9 km
Apogee: 879.2 km
Inclination: 98.8 °
Period: 101.6 minutes
Semi major axis: 7211 km
RCS: 0.0056 m2 (small)
Launch date: May 10, 1999
Source: People's Republic of China (PRC)
Launch site: Taiyaun Space Center, China (TSC)

Note: This is SATELLITE DEBRIS
aabbcc
Your satellite tracking list
Your tracking list is empty




NASA's NSSDC Master Catalog

Two Line Element Set (TLE):
1 38147U 99025EQU 18203.28929470  .00000174  00000-0  10523-3 0  9999
2 38147  98.8075 237.1652 0054318 158.3392 202.0097 14.17765045491813
Source of the keplerian elements: AFSPC